Weather History for Daggett-Barstow, CA

Change the Weather History Date:

Sunday, August 4, 2013

  Actual Average Record
Temperature  
Mean Temperature 88 °F -  
Max Temperature 105 °F 104 °F 112 °F (1969)
Min Temperature 71 °F 75 °F 58 °F (1953)
Cooling Degree Days 23    
Growing Degree Days 38 (Base 50)    
Moisture  
Dew Point 29 °F    
Average Humidity 14    
Maximum Humidity 27    
Minimum Humidity 4    
Precipitation  
Precipitation 0.00 in - - ()
Sea Level Pressure  
Sea Level Pressure 29.84 in    
Wind  
Wind Speed 12 mph (West)    
Max Wind Speed 22 mph    
Max Gust Speed 28 mph    
Visibility 10 miles    
Events      
Averages and records for this station are not official NWS values.
T = Trace of Precipitation, MM = Missing Value Source: NWS Daily Summary

Daily Weather History Graph

Daily Weather History Graph

Search for Another Location

Airport:

Trip Planner

Search our weather history database for the weather conditions in past years. The results will help you decide how hot, cold, wet, or windy it might be!

Date:

Astronomy

Aug. 04, 2013 Rise Set
Actual Time 5:59 AM PDT 7:46 PM PDT
Civil Twilight 5:31 AM PDT 8:13 PM PDT
Nautical Twilight 4:58 AM PDT 8:47 PM PDT
Astronomical Twilight 4:23 AM PDT 9:22 PM PDT
Moon 4:05 AM PDT (8/4) 6:12 PM PDT (8/4)
Length of Visible Light 14h 42m
Length of Day
13h 47m
Waning Crescent, 4% of the Moon is Illuminated
Aug 4
Waning Crescent
Aug 6
New
Aug 14
First Quarter
Aug 20
Full
Aug 28
Last Quarter

Hourly Weather History & Observations

Time (PDT) Temp. Dew Point Humidity Pressure Visibility Wind Dir Wind Speed Gust Speed Precip Events Conditions
12:50 AM 78.1 °F 33.1 °F 19% 29.84 in 10.0 mi West 12.7 mph - N/A   Clear
1:50 AM 75.0 °F 33.1 °F 22% 29.85 in 10.0 mi West 11.5 mph - N/A   Clear
2:50 AM 73.9 °F 34.0 °F 23% 29.85 in 10.0 mi West 12.7 mph - N/A   Clear
3:50 AM 73.0 °F 36.0 °F 26% 29.85 in 10.0 mi West 11.5 mph - N/A   Clear
4:50 AM 72.0 °F 36.0 °F 27% 29.86 in 10.0 mi West 9.2 mph - N/A   Clear
5:50 AM 71.1 °F 35.1 °F 27% 29.87 in 10.0 mi West 12.7 mph - N/A   Clear
6:50 AM 72.0 °F 36.0 °F 27% 29.88 in 10.0 mi West 12.7 mph - N/A   Clear
7:50 AM 77.0 °F 37.0 °F 24% 29.89 in 10.0 mi West 10.4 mph - N/A   Clear
8:50 AM 82.0 °F 33.1 °F 17% 29.90 in 10.0 mi WNW 10.4 mph - N/A   Clear
9:50 AM 88.0 °F 30.9 °F 13% 29.89 in 10.0 mi WNW 12.7 mph - N/A   Clear
10:50 AM 91.0 °F 33.1 °F 13% 29.88 in 10.0 mi NW 12.7 mph - N/A   Clear
11:50 AM 95.0 °F 30.9 °F 10% 29.87 in 10.0 mi NW 9.2 mph - N/A   Clear
12:50 PM 96.1 °F 26.1 °F 8% 29.86 in 10.0 mi Calm Calm - N/A   Clear
1:50 PM 99.0 °F 26.1 °F 8% 29.83 in 10.0 mi Calm Calm - N/A   Clear
2:50 PM 102.9 °F 24.1 °F 6% 29.81 in 10.0 mi WNW 10.4 mph - N/A   Clear
3:50 PM 102.0 °F 21.0 °F 6% 29.79 in 10.0 mi North 5.8 mph - N/A   Clear
4:50 PM 105.1 °F 19.0 °F 5% 29.77 in 10.0 mi Variable 5.8 mph - N/A   Clear
5:50 PM 102.9 °F 16.0 °F 4% 29.76 in 10.0 mi WSW 16.1 mph 23.0 mph N/A   Clear
6:50 PM 100.9 °F 19.9 °F 5% 29.76 in 10.0 mi WSW 17.3 mph - N/A   Clear
7:50 PM 96.1 °F 19.0 °F 6% 29.78 in 10.0 mi WSW 18.4 mph - N/A   Clear
8:50 PM 90.0 °F 28.9 °F 11% 29.81 in 10.0 mi West 21.9 mph 27.6 mph N/A   Clear
9:50 PM 88.0 °F 30.0 °F 12% 29.84 in 10.0 mi West 16.1 mph - N/A   Clear
10:50 PM 84.9 °F 27.0 °F 12% 29.85 in 10.0 mi West 17.3 mph - N/A   Clear
11:50 PM 82.0 °F 28.0 °F 14% 29.85 in 10.0 mi West 15.0 mph - N/A   Clear